When you browse on this site, cookies collect data to enhance your experience and personalize the content and advertising you see.
Visit our Privacy Policy to learn more. By continuing to use the site, you agree to this use of cookies and data.
  • Em Portugal
  • Lista de países
  • Para 7 dias
  • Temperatura da água
  • Mapas de satélite
  • Mapa do tempo
  • Widgets de tempo
  • user-avatar
    Iniciar Sessão

    Previsão horária em Elki

    Hoje, 24 Junho, Segunda-feira

    Tempo Temperatura Precipitação Vento Pressão Humidade
    00:00 +15°C° 0 mm 4 m/s 752 mmHg 95%
    01:00 +15°C° 0 mm 4 m/s 753 mmHg 94%
    02:00 +15°C° 0 mm 4 m/s 753 mmHg 94%
    03:00 +15°C° 0 mm 4 m/s 753 mmHg 94%
    04:00 +15°C° 0 mm 4 m/s 753 mmHg 94%
    05:00 +15°C° 0 mm 4 m/s 753 mmHg 94%
    06:00 +17°C° 0 mm 4 m/s 753 mmHg 88%
    07:00 +18°C° 0 mm 4 m/s 754 mmHg 83%
    08:00 +20°C° 0 mm 4 m/s 754 mmHg 77%
    09:00 +21°C° 0 mm 4 m/s 754 mmHg 72%
    10:00 +22°C° 0 mm 5 m/s 755 mmHg 68%
    11:00 +23°C° 0 mm 5 m/s 755 mmHg 63%
    12:00 +23°C° 0 mm 5 m/s 755 mmHg 63%
    13:00 +25°C° 0 mm 5 m/s 755 mmHg 62%
    14:00 +25°C° 0 mm 5 m/s 755 mmHg 61%
    15:00 +25°C° 0 mm 5 m/s 755 mmHg 62%
    16:00 +23°C° 0 mm 5 m/s 755 mmHg 64%
    17:00 +23°C° 0 mm 5 m/s 755 mmHg 65%
    18:00 +21°C° 0 mm 4 m/s 755 mmHg 70%
    19:00 +20°C° 0 mm 3 m/s 756 mmHg 76%
    20:00 +18°C° 0 mm 2 m/s 756 mmHg 81%
    21:00 +18°C° 0 mm 3 m/s 756 mmHg 83%
    22:00 +17°C° 0 mm 3 m/s 756 mmHg 86%
    23:00 +16°C° 0 mm 3 m/s 756 mmHg 88%

    Amanhã, 25 Junho, Terça-feira

    Tempo Temperatura Precipitação Vento Pressão Humidade
    00:00 +14°C° 0 mm 3 m/s 757 mmHg 88%
    01:00 +14°C° 0 mm 3 m/s 757 mmHg 89%
    02:00 +14°C° 0 mm 3 m/s 758 mmHg 89%
    03:00 +13°C° 0 mm 3 m/s 757 mmHg 87%
    04:00 +13°C° 0 mm 3 m/s 757 mmHg 86%
    05:00 +13°C° 0 mm 3 m/s 757 mmHg 85%
    06:00 +16°C° 0 mm 3 m/s 757 mmHg 81%
    07:00 +18°C° 0 mm 3 m/s 758 mmHg 76%
    08:00 +20°C° 0 mm 3 m/s 758 mmHg 72%
    09:00 +21°C° 0 mm 3 m/s 758 mmHg 67%
    10:00 +22°C° 0 mm 3 m/s 758 mmHg 63%
    11:00 +24°C° 0 mm 3 m/s 758 mmHg 58%
    12:00 +25°C° 0 mm 3 m/s 758 mmHg 57%
    13:00 +25°C° 0 mm 3 m/s 758 mmHg 55%
    14:00 +25°C° 0 mm 3 m/s 758 mmHg 54%
    15:00 +25°C° 0 mm 3 m/s 758 mmHg 56%
    16:00 +25°C° 0 mm 3 m/s 758 mmHg 59%
    17:00 +24°C° 0 mm 3 m/s 758 mmHg 61%
    18:00 +22°C° 0 mm 3 m/s 758 mmHg 67%
    19:00 +20°C° 0 mm 2 m/s 758 mmHg 72%
    20:00 +18°C° 0 mm 2 m/s 758 mmHg 78%
    21:00 +17°C° 0 mm 2 m/s 758 mmHg 79%
    22:00 +18°C° 0 mm 1 m/s 758 mmHg 81%
    23:00 +16°C° 0 mm 1 m/s 758 mmHg 83%

    Depois de amanhã, 26 Junho, Quarta-feira

    Tempo Temperatura Precipitação Vento Pressão Humidade
    00:00 +15°C° 0 mm 1 m/s 758 mmHg 84%
    01:00 +15°C° 0 mm 1 m/s 758 mmHg 84%
    02:00 +13°C° 0 mm 0 m/s 758 mmHg 85%
    03:00 +14°C° 0 mm 0 m/s 758 mmHg 85%
    04:00 +14°C° 0 mm 0 m/s 757 mmHg 84%
    05:00 +14°C° 0 mm 0 m/s 757 mmHg 84%
    06:00 +16°C° 0 mm 0 m/s 757 mmHg 79%
    07:00 +20°C° 0 mm 1 m/s 757 mmHg 74%
    08:00 +21°C° 0 mm 1 m/s 757 mmHg 69%
    09:00 +22°C° 0 mm 1 m/s 756 mmHg 65%
    10:00 +23°C° 0 mm 1 m/s 756 mmHg 60%
    11:00 +25°C° 0 mm 1 m/s 756 mmHg 55%
    12:00 +25°C° 0 mm 2 m/s 755 mmHg 54%
    13:00 +26°C° 0 mm 2 m/s 755 mmHg 53%
    14:00 +26°C° 0 mm 2 m/s 754 mmHg 52%
    15:00 +26°C° 0 mm 2 m/s 754 mmHg 55%
    16:00 +26°C° 0 mm 2 m/s 753 mmHg 58%
    17:00 +26°C° 0 mm 3 m/s 752 mmHg 61%
    18:00 +25°C° 0 mm 2 m/s 752 mmHg 67%
    19:00 +23°C° 0 mm 2 m/s 751 mmHg 73%
    20:00 +21°C° 0 mm 2 m/s 751 mmHg 78%
    21:00 +20°C° 0 mm 2 m/s 750 mmHg 80%
    22:00 +19°C° 0 mm 2 m/s 750 mmHg 82%
    23:00 +19°C° 0 mm 2 m/s 750 mmHg 84%

    27 Junho, Quinta-feira

    Tempo Temperatura Precipitação Vento Pressão Humidade
    00:00 +18°C° 0 mm 2 m/s 749 mmHg 85%
    01:00 +18°C° 0 mm 3 m/s 748 mmHg 86%
    02:00 +18°C° 0 mm 3 m/s 747 mmHg 88%
    03:00 +18°C° 0 mm 4 m/s 747 mmHg 88%
    04:00 +18°C° 0 mm 4 m/s 746 mmHg 88%
    05:00 +19°C° 0 mm 4 m/s 745 mmHg 88%
    06:00 +20°C° 1.2 mm 5 m/s 744 mmHg 88%
    07:00 +20°C° 1.2 mm 5 m/s 743 mmHg 88%
    08:00 +21°C° 1.2 mm 6 m/s 742 mmHg 89%
    09:00 +22°C° 0.4 mm 6 m/s 742 mmHg 88%
    10:00 +22°C° 0.4 mm 6 m/s 741 mmHg 88%
    11:00 +23°C° 0.4 mm 5 m/s 741 mmHg 88%
    12:00 +23°C° 0.6 mm 6 m/s 740 mmHg 83%
    13:00 +24°C° 0.6 mm 7 m/s 740 mmHg 78%
    14:00 +26°C° 0.6 mm 7 m/s 739 mmHg 74%
    15:00 +23°C° 0.6 mm 8 m/s 739 mmHg 77%
    16:00 +21°C° 0.6 mm 9 m/s 739 mmHg 80%
    17:00 +19°C° 0.6 mm 10 m/s 740 mmHg 83%
    18:00 +17°C° 0 mm 8 m/s 740 mmHg 82%
    19:00 +16°C° 0 mm 6 m/s 740 mmHg 81%
    20:00 +15°C° 0 mm 4 m/s 740 mmHg 81%
    21:00 +15°C° 0 mm 5 m/s 741 mmHg 78%
    22:00 +14°C° 0 mm 6 m/s 741 mmHg 76%
    23:00 +14°C° 0 mm 7 m/s 741 mmHg 73%

    28 Junho, Sexta-feira

    Tempo Temperatura Precipitação Vento Pressão Humidade
    00:00 +14°C° 0 mm 7 m/s 741 mmHg 72%
    01:00 +14°C° 0 mm 7 m/s 741 mmHg 71%
    02:00 +14°C° 0 mm 7 m/s 741 mmHg 70%
    03:00 +12°C° 0 mm 7 m/s 740 mmHg 73%
    04:00 +11°C° 0 mm 7 m/s 740 mmHg 76%
    05:00 +10°C° 0 mm 7 m/s 740 mmHg 80%
    06:00 +11°C° 0 mm 8 m/s 740 mmHg 77%
    07:00 +12°C° 0 mm 8 m/s 740 mmHg 75%
    08:00 +13°C° 0 mm 9 m/s 740 mmHg 73%
    09:00 +13°C° 0 mm 9 m/s 740 mmHg 72%
    10:00 +15°C° 0 mm 9 m/s 740 mmHg 71%
    11:00 +16°C° 0 mm 9 m/s 740 mmHg 70%
    12:00 +16°C° 0.3 mm 9 m/s 740 mmHg 69%
    13:00 +17°C° 0.3 mm 9 m/s 740 mmHg 68%
    14:00 +17°C° 0.3 mm 8 m/s 740 mmHg 68%
    15:00 +17°C° 0.4 mm 8 m/s 740 mmHg 70%
    16:00 +16°C° 0.4 mm 7 m/s 740 mmHg 73%
    17:00 +16°C° 0.4 mm 7 m/s 740 mmHg 75%
    18:00 +15°C° 0.1 mm 6 m/s 740 mmHg 75%
    19:00 +15°C° 0.1 mm 5 m/s 740 mmHg 75%
    20:00 +14°C° 0.1 mm 5 m/s 740 mmHg 74%
    21:00 +13°C° 0 mm 5 m/s 740 mmHg 73%
    22:00 +13°C° 0 mm 5 m/s 740 mmHg 72%
    23:00 +12°C° 0 mm 5 m/s 740 mmHg 70%

    29 Junho, Sábado

    Tempo Temperatura Precipitação Vento Pressão Humidade
    00:00 +12°C° 0 mm 5 m/s 740 mmHg 70%
    01:00 +11°C° 0 mm 6 m/s 739 mmHg 69%
    02:00 +11°C° 0 mm 6 m/s 739 mmHg 68%
    03:00 +10°C° 0 mm 6 m/s 739 mmHg 71%
    04:00 +9°C° 0 mm 7 m/s 739 mmHg 73%
    05:00 +9°C° 0 mm 7 m/s 739 mmHg 75%
    06:00 +9°C° 0 mm 7 m/s 739 mmHg 73%
    07:00 +10°C° 0 mm 8 m/s 739 mmHg 71%
    08:00 +10°C° 0 mm 8 m/s 739 mmHg 69%
    09:00 +10°C° 0 mm 8 m/s 739 mmHg 68%
    10:00 +10°C° 0 mm 8 m/s 740 mmHg 67%
    11:00 +10°C° 0 mm 8 m/s 740 mmHg 66%
    12:00 +11°C° 0.1 mm 8 m/s 740 mmHg 67%
    13:00 +11°C° 0.1 mm 7 m/s 740 mmHg 68%
    14:00 +11°C° 0.1 mm 7 m/s 740 mmHg 69%
    15:00 +11°C° 0 mm 6 m/s 740 mmHg 69%
    16:00 +11°C° 0 mm 6 m/s 740 mmHg 70%
    17:00 +11°C° 0 mm 6 m/s 740 mmHg 70%
    18:00 +11°C° 0 mm 7 m/s 740 mmHg 69%
    19:00 +11°C° 0 mm 7 m/s 740 mmHg 68%
    20:00 +11°C° 0 mm 8 m/s 740 mmHg 66%
    21:00 +11°C° 0 mm 7 m/s 740 mmHg 63%
    22:00 +11°C° 0 mm 7 m/s 740 mmHg 60%
    23:00 +11°C° 0 mm 7 m/s 740 mmHg 56%
    Mostrar mais